Weather History for La Junta, CO

Change the Weather History Date:

Monday, February 10, 2014

  Actual Average Record
Temperature  
Mean Temperature 19 °F 33 °F  
Max Temperature 22 °F 47 °F 78 °F (1951)
Min Temperature 15 °F 20 °F -7 °F (2011)
Degree Days  
Heating Degree Days 46 32  
Month to date heating degree days 498 325  
Since 1 July heating degree days 3620 3582  
Cooling Degree Days 0 0  
Month to date cooling degree days 0 0  
Year to date cooling degree days 0 0  
Moisture  
Dew Point 17 °F    
Average Humidity 88    
Maximum Humidity 92    
Minimum Humidity 84    
Precipitation  
Precipitation 0.03 in 0.01 in 0.80 in (1993)
Month to date precipitation 0.10 0.11  
Year to date precipitation 0.19 0.40  
Sea Level Pressure  
Sea Level Pressure 30.16 in    
Wind  
Wind Speed 8 mph (East)    
Max Wind Speed 15 mph    
Max Gust Speed 17 mph    
Visibility 2 miles    
Events Fog , Snow    
T = Trace of Precipitation, MM = Missing Value Source: NWS Daily Summary

Daily Weather History Graph

Daily Weather History Graph

Search for Another Location

Airport:

Trip Planner

Search our weather history database for the weather conditions in past years. The results will help you decide how hot, cold, wet, or windy it might be!

Date:

Astronomy

Feb. 10, 2014 Rise Set
Actual Time 6:49 AM MST 5:27 PM MST
Civil Twilight 6:22 AM MST 5:54 PM MST
Nautical Twilight 5:51 AM MST 6:25 PM MST
Astronomical Twilight 5:20 AM MST 6:56 PM MST
Moon 1:59 PM MST (2/10) 3:43 AM MST (2/10)
Length of Visible Light 11h 32m
Length of Day
10h 37m
Waxing Gibbous, 85% of the Moon is Illuminated
Feb 10
Waxing Gibbous
Feb 14
Full
Feb 22
Last Quarter
Mar 1
New
Mar 8
First Quarter

Hourly Weather History & Observations

Time (MST) Temp. Windchill Dew Point Humidity Pressure Visibility Wind Dir Wind Speed Gust Speed Precip Events Conditions
12:03 AM 18.0 °F 11.1 °F 15.1 °F 88% 30.15 in 2.5 mi ENE 4.6 mph - N/A   Overcast
12:37 AM 18.0 °F 12.7 °F 16.0 °F 92% 30.14 in 3.0 mi East 3.5 mph - N/A   Overcast
12:50 AM 17.6 °F 12.3 °F 15.8 °F 93% 30.13 in 2.5 mi ESE 3.5 mph - N/A   Overcast
12:53 AM 18.0 °F 12.7 °F 16.0 °F 92% 30.25 in 2.5 mi ESE 3.5 mph - N/A   Overcast
1:32 AM 18.0 °F 11.1 °F 16.0 °F 92% 30.13 in 1.2 mi SE 4.6 mph - N/A   Overcast
1:53 AM 18.0 °F 11.1 °F 16.0 °F 92% 30.23 in 0.8 mi SE 4.6 mph - N/A   Overcast
2:53 AM 18.0 °F 9.8 °F 15.1 °F 88% 30.23 in 0.2 mi SE 5.8 mph - N/A Fog Light Freezing Fog
3:53 AM 19.0 °F 11.1 °F 16.0 °F 88% 30.22 in 0.5 mi ESE 5.8 mph - N/A Fog Light Freezing Fog
4:22 AM 19.0 °F 10.0 °F 16.0 °F 88% 30.10 in 1.0 mi East 6.9 mph - N/A   Mist
4:53 AM 18.0 °F 7.7 °F 16.0 °F 92% 30.23 in 1.0 mi East 8.1 mph - N/A   Overcast
5:01 AM 18.0 °F 7.7 °F 16.0 °F 92% 30.10 in 0.8 mi East 8.1 mph - N/A   Mist
5:53 AM 18.0 °F 6.1 °F 16.0 °F 92% 30.23 in 0.5 mi ESE 10.4 mph - N/A Fog Light Freezing Fog
6:53 AM 19.0 °F 8.2 °F 16.0 °F 88% 30.22 in 0.5 mi East 9.2 mph - N/A Fog Light Freezing Fog
7:53 AM 19.0 °F 7.5 °F 16.0 °F 88% 30.22 in 0.5 mi East 10.4 mph - N/A Fog Light Freezing Fog
8:53 AM 19.0 °F 6.8 °F 17.1 °F 92% 30.23 in 0.5 mi ENE 11.5 mph - N/A Fog Light Freezing Fog
9:53 AM 19.9 °F 6.7 °F 17.1 °F 89% 30.22 in 0.2 mi ENE 13.8 mph - N/A Fog Light Freezing Fog
10:51 AM 21.2 °F 8.3 °F 19.4 °F 93% 30.09 in 1.2 mi East 13.8 mph - N/A   Overcast
10:53 AM 21.0 °F 8.6 °F 19.0 °F 92% 30.21 in 1.5 mi East 12.7 mph - N/A   Overcast
11:10 AM 21.0 °F 8.1 °F 19.0 °F 92% 30.10 in 2.5 mi East 13.8 mph - N/A   Overcast
11:53 AM 21.9 °F 11.0 °F 19.0 °F 89% 30.20 in 2.5 mi East 10.4 mph - N/A   Overcast
12:21 PM 21.0 °F 10.6 °F 19.0 °F 92% 30.08 in 3.0 mi East 9.2 mph - N/A   Overcast
12:31 PM 21.9 °F 11.7 °F 19.0 °F 89% 30.08 in 1.8 mi ENE 9.2 mph - 0.00 in Snow Light Snow
12:53 PM 21.9 °F 11.7 °F 19.0 °F 89% 30.17 in 1.0 mi ENE 9.2 mph - 0.00 in Snow Light Snow
1:03 PM 21.9 °F 11.0 °F 19.0 °F 89% 30.05 in 1.2 mi East 10.4 mph - 0.00 in Snow Light Snow
1:13 PM 21.9 °F 11.0 °F 19.0 °F 89% 30.06 in 0.8 mi East 10.4 mph - 0.00 in Snow Light Snow
1:28 PM 21.9 °F 10.4 °F 19.0 °F 89% 30.05 in 0.5 mi East 11.5 mph - 0.00 in Fog , Snow Snow
1:43 PM 21.9 °F 11.0 °F 19.0 °F 89% 30.05 in 0.8 mi East 10.4 mph - 0.01 in Snow Light Snow
1:53 PM 21.9 °F 11.0 °F 19.0 °F 89% 30.16 in 0.8 mi East 10.4 mph - 0.01 in Snow Light Snow
2:16 PM 21.9 °F 11.7 °F 19.0 °F 89% 30.06 in 1.0 mi East 9.2 mph - 0.00 in Snow Light Snow
2:38 PM 21.9 °F 12.5 °F 19.0 °F 89% 30.06 in 0.5 mi East 8.1 mph - 0.01 in Fog , Snow Snow
2:53 PM 21.9 °F 11.7 °F 18.0 °F 85% 30.17 in 0.2 mi East 9.2 mph - 0.02 in Fog , Snow Heavy Snow
3:20 PM 21.9 °F 12.5 °F 18.0 °F 85% 30.07 in 1.0 mi ENE 8.1 mph - 0.00 in Snow Light Snow
3:39 PM 21.9 °F 11.7 °F 18.0 °F 85% 30.07 in 1.5 mi ENE 9.2 mph - 0.00 in Snow Light Snow
3:48 PM 21.2 °F 10.1 °F 17.6 °F 86% 30.07 in 2.5 mi ENE 10.4 mph - 0.00 in Snow Light Snow
3:53 PM 21.0 °F 10.6 °F 18.0 °F 88% 30.19 in 3.0 mi ENE 9.2 mph - 0.00 in   Overcast
4:21 PM 21.0 °F 10.6 °F 18.0 °F 88% 30.07 in 3.0 mi ENE 9.2 mph - 0.00 in   Mostly Cloudy
4:33 PM 21.0 °F 12.4 °F 17.1 °F 85% 30.08 in 5.0 mi East 6.9 mph - 0.00 in   Mostly Cloudy
4:53 PM 21.0 °F 10.6 °F 17.1 °F 85% 30.20 in 5.0 mi ENE 9.2 mph - 0.00 in   Overcast
5:53 PM 15.1 °F 5.2 °F 12.0 °F 88% 30.26 in 6.0 mi North 6.9 mph - N/A   Overcast
6:53 PM 18.0 °F 9.8 °F 14.0 °F 84% 30.27 in 6.0 mi NNE 5.8 mph - N/A   Overcast
7:18 PM 18.0 °F 7.7 °F 14.0 °F 84% 30.15 in 6.0 mi ENE 8.1 mph - N/A   Overcast
7:53 PM 18.0 °F 9.8 °F 16.0 °F 92% 30.27 in 6.0 mi ENE 5.8 mph - N/A   Overcast
8:53 PM 19.0 °F - 17.1 °F 92% 30.29 in 7.0 mi Calm Calm - N/A   Overcast
9:53 PM 19.0 °F 12.3 °F 16.0 °F 88% 30.29 in 7.0 mi WNW 4.6 mph - N/A   Overcast
10:53 PM 19.9 °F 14.9 °F 17.1 °F 89% 30.28 in 7.0 mi West 3.5 mph - N/A   Overcast
11:53 PM 19.0 °F 12.3 °F 16.0 °F 88% 30.28 in 6.0 mi West 4.6 mph - N/A   Overcast